TimeEDT,TemperatureF,Dew PointF,Humidity,Sea Level PressureIn,VisibilityMPH,Wind Direction,Wind SpeedMPH,Gust SpeedMPH,PrecipitationIn,Events,Conditions,WindDirDegrees,DateUTC
12:15 AM,66.2,66.2,100,29.87,7.0,Calm,Calm,-,N/A,,Clear,0,2013-09-23 04:15:00
12:35 AM,64.4,64.4,100,29.88,7.0,Calm,Calm,-,N/A,,Clear,0,2013-09-23 04:35:00
12:55 AM,64.4,64.4,100,29.87,10.0,Calm,Calm,-,N/A,,Clear,0,2013-09-23 04:55:00
1:15 AM,64.4,64.4,100,29.88,7.0,Calm,Calm,-,N/A,,Clear,0,2013-09-23 05:15:00
1:35 AM,64.4,64.4,100,29.88,7.0,Calm,Calm,-,N/A,,Clear,0,2013-09-23 05:35:00
1:55 AM,64.4,64.4,100,29.89,5.0,Calm,Calm,-,N/A,,Clear,0,2013-09-23 05:55:00
2:15 AM,62.6,62.6,100,29.89,5.0,Calm,Calm,-,N/A,,Clear,0,2013-09-23 06:15:00
2:35 AM,62.6,62.6,100,29.89,10.0,Calm,Calm,-,N/A,,Clear,0,2013-09-23 06:35:00
2:55 AM,62.6,62.6,100,29.89,1.0,Calm,Calm,-,N/A,,Mist,0,2013-09-23 06:55:00
3:15 AM,62.6,62.6,100,29.89,7.0,Calm,Calm,-,N/A,,Clear,0,2013-09-23 07:15:00
3:35 AM,62.6,62.6,100,29.89,4.0,Calm,Calm,-,N/A,,Clear,0,2013-09-23 07:35:00
3:55 AM,62.6,62.6,100,29.90,5.0,Calm,Calm,-,N/A,,Clear,0,2013-09-23 07:55:00
4:15 AM,60.8,60.8,100,29.90,4.0,Calm,Calm,-,N/A,,Clear,0,2013-09-23 08:15:00
4:35 AM,60.8,60.8,100,29.91,7.0,Calm,Calm,-,N/A,,Clear,0,2013-09-23 08:35:00
4:55 AM,62.6,62.6,100,29.91,7.0,Calm,Calm,-,N/A,,Clear,0,2013-09-23 08:55:00
5:15 AM,60.8,60.8,100,29.92,5.0,Calm,Calm,-,N/A,,Clear,0,2013-09-23 09:15:00
5:35 AM,62.6,62.6,100,29.93,10.0,NE,4.6,-,N/A,,Clear,50,2013-09-23 09:35:00
5:55 AM,64.4,64.4,100,29.93,10.0,ENE,4.6,-,N/A,,Clear,60,2013-09-23 09:55:00
6:15 AM,64.4,62.6,94,29.93,10.0,ENE,3.5,-,N/A,,Clear,70,2013-09-23 10:15:00
6:35 AM,64.4,62.6,94,29.94,7.0,ENE,3.5,-,N/A,,Clear,60,2013-09-23 10:35:00
6:55 AM,62.6,62.6,100,29.95,10.0,Calm,Calm,-,N/A,,Clear,0,2013-09-23 10:55:00
7:15 AM,62.6,62.6,100,29.96,10.0,Calm,Calm,-,N/A,,Clear,0,2013-09-23 11:15:00
7:35 AM,62.6,62.6,100,29.97,7.0,Calm,Calm,-,N/A,,Clear,0,2013-09-23 11:35:00
7:55 AM,64.4,62.6,94,29.98,7.0,Calm,Calm,-,N/A,,Clear,0,2013-09-23 11:55:00
8:15 AM,66.2,64.4,94,29.98,7.0,ENE,3.5,-,N/A,,Clear,60,2013-09-23 12:15:00
8:35 AM,68.0,64.4,88,29.99,7.0,ENE,5.8,-,N/A,,Clear,70,2013-09-23 12:35:00
8:55 AM,68.0,64.4,88,29.99,10.0,ENE,5.8,-,N/A,,Clear,60,2013-09-23 12:55:00
9:15 AM,69.8,64.4,83,29.99,10.0,ENE,5.8,-,N/A,,Clear,70,2013-09-23 13:15:00
9:35 AM,71.6,64.4,78,30.00,10.0,East,8.1,-,N/A,,Clear,80,2013-09-23 13:35:00
9:55 AM,73.4,64.4,73,30.00,10.0,East,8.1,-,N/A,,Clear,80,2013-09-23 13:55:00
10:15 AM,73.4,60.8,65,30.00,10.0,ENE,8.1,-,N/A,,Clear,60,2013-09-23 14:15:00
10:35 AM,75.2,60.8,61,30.00,10.0,East,9.2,-,N/A,,Clear,80,2013-09-23 14:35:00
10:55 AM,75.2,60.8,61,30.01,10.0,ENE,10.4,-,N/A,,Clear,70,2013-09-23 14:55:00
11:15 AM,77.0,60.8,57,30.02,10.0,ENE,8.1,-,N/A,,Clear,60,2013-09-23 15:15:00
11:35 AM,77.0,60.8,57,30.03,10.0,ENE,10.4,-,N/A,,Clear,60,2013-09-23 15:35:00
11:55 AM,78.8,59.0,51,30.02,10.0,NE,8.1,-,N/A,,Clear,40,2013-09-23 15:55:00
12:15 PM,78.8,60.8,54,30.03,7.0,East,6.9,-,N/A,,Clear,80,2013-09-23 16:15:00
12:35 PM,78.8,60.8,54,30.03,10.0,NE,5.8,-,N/A,,Clear,50,2013-09-23 16:35:00
12:55 PM,78.8,60.8,54,30.02,10.0,ESE,5.8,-,N/A,,Clear,110,2013-09-23 16:55:00
1:15 PM,80.6,59.0,48,30.02,7.0,NNE,5.8,-,N/A,,Clear,30,2013-09-23 17:15:00
1:35 PM,80.6,59.0,48,30.01,10.0,North,3.5,-,N/A,,Clear,10,2013-09-23 17:35:00
2:15 PM,80.6,60.8,51,30.01,7.0,NNW,4.6,-,N/A,,Scattered Clouds,330,2013-09-23 18:15:00
2:35 PM,80.6,60.8,51,30.00,10.0,NNW,6.9,-,N/A,,Clear,330,2013-09-23 18:35:00
2:55 PM,80.6,60.8,51,29.99,10.0,NNW,5.8,-,N/A,,Clear,330,2013-09-23 18:55:00
3:15 PM,80.6,62.6,54,29.99,10.0,NW,5.8,-,N/A,,Clear,320,2013-09-23 19:15:00
3:35 PM,82.4,62.6,51,29.99,10.0,NNW,4.6,-,N/A,,Clear,330,2013-09-23 19:35:00
3:55 PM,80.6,62.6,54,29.98,10.0,NNW,6.9,-,N/A,,Clear,340,2013-09-23 19:55:00
4:15 PM,80.6,60.8,51,29.98,10.0,North,5.8,-,N/A,,Clear,10,2013-09-23 20:15:00
4:35 PM,80.6,62.6,54,29.98,7.0,North,6.9,-,N/A,,Clear,360,2013-09-23 20:35:00
4:55 PM,80.6,60.8,51,29.98,7.0,North,5.8,-,N/A,,Clear,10,2013-09-23 20:55:00
5:15 PM,80.6,62.6,54,29.98,7.0,NNW,3.5,-,N/A,,Clear,340,2013-09-23 21:15:00
5:35 PM,80.6,60.8,51,29.99,7.0,North,3.5,-,N/A,,Clear,10,2013-09-23 21:35:00
5:55 PM,80.6,60.8,51,29.99,7.0,NE,6.9,-,N/A,,Clear,50,2013-09-23 21:55:00
6:15 PM,78.8,60.8,54,29.99,10.0,NNE,4.6,-,N/A,,Clear,30,2013-09-23 22:15:00
6:35 PM,77.0,62.6,61,30.00,10.0,NNE,4.6,-,N/A,,Clear,30,2013-09-23 22:35:00
6:55 PM,77.0,62.6,61,30.00,10.0,NNE,3.5,-,N/A,,Clear,30,2013-09-23 22:55:00
7:15 PM,75.2,62.6,65,30.00,10.0,Calm,Calm,-,N/A,,Clear,0,2013-09-23 23:15:00
7:35 PM,71.6,64.4,78,30.01,10.0,Calm,Calm,-,N/A,,Scattered Clouds,0,2013-09-23 23:35:00
7:55 PM,71.6,64.4,78,30.01,10.0,Calm,Calm,-,N/A,,Mostly Cloudy,0,2013-09-23 23:55:00
8:15 PM,71.6,64.4,78,30.02,10.0,Calm,Calm,-,N/A,,Scattered Clouds,0,2013-09-24 00:15:00
8:35 PM,69.8,64.4,83,30.03,10.0,Calm,Calm,-,N/A,,Clear,0,2013-09-24 00:35:00
8:55 PM,68.0,64.4,88,30.03,10.0,Calm,Calm,-,N/A,,Clear,0,2013-09-24 00:55:00
9:15 PM,66.2,62.6,88,30.04,10.0,Calm,Calm,-,N/A,,Clear,0,2013-09-24 01:15:00
9:35 PM,64.4,62.6,94,30.04,10.0,Calm,Calm,-,N/A,,Clear,0,2013-09-24 01:35:00
9:55 PM,64.4,62.6,94,30.04,7.0,Calm,Calm,-,N/A,,Clear,0,2013-09-24 01:55:00
10:15 PM,62.6,62.6,100,30.05,10.0,Calm,Calm,-,N/A,,Clear,0,2013-09-24 02:15:00
10:35 PM,62.6,62.6,100,30.05,7.0,Calm,Calm,-,N/A,,Clear,0,2013-09-24 02:35:00
10:55 PM,62.6,62.6,100,30.05,10.0,Calm,Calm,-,N/A,,Clear,0,2013-09-24 02:55:00
11:15 PM,62.6,60.8,94,30.05,10.0,Calm,Calm,-,N/A,,Clear,0,2013-09-24 03:15:00
11:35 PM,62.6,62.6,100,30.05,10.0,Calm,Calm,-,N/A,,Clear,0,2013-09-24 03:35:00
11:55 PM,62.6,62.6,100,30.05,10.0,Calm,Calm,-,N/A,,Clear,0,2013-09-24 03:55:00